FW3942 Weather Reports


time (UTC)temp
F
wind
direction
speed
knots
gust
knots
rain 1hr
in
rain 24hr
in
rain mn
in
humidity
%
barometer
mb
20260508033013 45 313 4.3 7.0 0.00 0.94 0.00 95 1002.3
20260508031509 48 113 0.0 0.0 0.01 0.94 0.00 96 1002.1
20260508030006 48 113 0.0 2.6 0.01 0.94 0.94 96 1002.0
20260508024507 48 113 0.9 4.3 0.02 0.94 0.94 96 1002.1
20260508023004 48 105 4.3 7.0 0.03 0.94 0.94 96 1001.9
20260508021503 47 194 0.0 0.9 0.03 0.93 0.93 96 1002.4
20260508020002 47 194 0.0 3.5 0.06 0.93 0.93 96 1002.5
20260508014502 47 140 1.7 3.5 0.06 0.92 0.92 96 1002.6
20260508013001 47 232 1.7 2.6 0.07 0.91 0.91 96 1002.7
20260508011616 47 232 1.7 2.6 0.09 0.90 0.90 95 1002.6
20260508010104 46 232 0.9 3.5 0.08 0.87 0.87 95 1002.4
20260508004558 47 201 2.6 4.3 0.08 0.86 0.86 95 1002.6
20260508003058 46 191 1.7 5.2 0.07 0.83 0.83 95 1002.5
20260508001557 46 214 2.6 6.1 0.06 0.81 0.81 95 1002.6
20260508000116 46 197 3.5 6.1 0.04 0.80 0.80 94 1002.7
20260507234556 46 188 1.7 10.4 0.02 0.78 0.78 95 1002.4
20260507233054 45 229 6.1 14.8 0.01 0.76 0.76 94 1002.2
20260507231558 46 285 10.4 15.6 0.00 0.76 0.76 91 1001.7
20260507230049 54 268 13.0 19.1 0.00 0.76 0.76 84 1001.5
20260507224551 56 194 2.6 6.1 0.00 0.76 0.76 88 1000.8
20260507223046 56 166 6.1 7.8 0.00 0.76 0.76 88 1000.9
20260507221545 56 158 5.2 8.7 0.00 0.76 0.76 87 1000.9
20260507220045 56 174 5.2 10.4 0.00 0.76 0.76 87 1000.6
20260507214547 56 170 6.1 13.0 0.00 0.76 0.76 87 1000.6
20260507213044 57 170 7.8 13.9 0.00 0.76 0.76 86 1000.6
20260507211551 57 143 11.3 16.5 0.00 0.76 0.76 87 1000.5
20260507210047 56 149 7.8 12.2 0.02 0.76 0.76 88 1000.5
20260507204542 56 145 2.6 10.4 0.06 0.76 0.76 89 1000.5
20260507203042 56 175 8.7 19.1 0.10 0.76 0.76 89 1000.3
20260507201539 56 153 9.6 18.2 0.15 0.76 0.76 89 1000.1
20260507200040 55 128 12.2 19.1 0.19 0.74 0.74 91 999.8
20260507194537 55 137 12.2 19.1 0.21 0.70 0.70 91 1000.8
20260507193030 55 134 9.6 14.8 0.24 0.65 0.65 91 1001.9
20260507191529 55 167 7.0 12.2 0.28 0.61 0.61 91 1002.7
20260507190030 56 161 7.8 17.4 0.31 0.55 0.55 91 1002.5
20260507184525 56 166 11.3 19.1 0.34 0.49 0.49 92 1003.0
20260507183025 55 177 9.6 20.0 0.34 0.41 0.41 92 1002.9
20260507181525 55 200 7.0 13.0 0.28 0.32 0.32 93 1003.4
20260507180024 55 204 9.6 16.5 0.22 0.24 0.24 93 1003.6
20260507174540 54 203 11.3 20.9 0.14 0.15 0.15 92 1003.8
20260507173022 57 183 17.4 22.6 0.07 0.07 0.07 89 1003.2
20260507171518 58 206 11.3 24.3 0.03 0.03 0.03 87 1002.8
20260507170013 59 194 11.3 20.9 0.02 0.02 0.02 86 1002.7
20260507164511 60 201 18.2 25.2 0.01 0.01 0.01 81 1002.7
20260507163011 62 197 16.5 30.4 0.00 0.00 0.00 78 1003.0
20260507161511 62 208 11.3 29.5 0.00 0.00 0.00 79 1003.3
20260507160008 61 196 18.2 33.0 0.00 0.00 0.00 77 1003.4
20260507154508 62 205 20.9 36.5 0.00 0.00 0.00 76 1003.5
20260507153002 62 201 18.2 33.0 0.00 0.00 0.00 74 1004.1
20260507151602 62 194 19.1 37.4 0.00 0.00 0.00 75 1004.5
20260507150059 62 201 24.3 40.0 0.00 0.00 0.00 75 1004.7
20260507144558 62 209 16.5 31.3 0.00 0.00 0.00 76 1004.9
20260507143108 62 184 18.2 34.8 0.00 0.00 0.00 76 1004.8
20260507141610 61 188 19.1 31.3 0.00 0.00 0.00 79 1005.3
20260507140110 61 195 21.7 33.0 0.00 0.00 0.00 80 1005.4
20260507134551 61 184 20.9 33.9 0.00 0.00 0.00 78 1005.6
20260507133056 61 167 21.7 34.8 0.00 0.00 0.00 79 1005.5
20260507131613 61 194 14.8 33.9 0.00 0.00 0.00 80 1005.8
20260507130046 62 197 23.5 40.8 0.00 0.00 0.00 78 1006.3
20260507124551 62 148 19.1 40.0 0.00 0.00 0.00 80 1006.1
20260507123044 61 174 26.9 40.8 0.00 0.00 0.00 79 1006.3
20260507121538 61 165 20.0 31.3 0.00 0.00 0.00 80 1006.2
20260507120040 60 184 20.9 33.9 0.00 0.00 0.00 82 1006.5
20260507114534 60 148 23.5 33.9 0.00 0.00 0.00 82 1006.8
20260507113059 60 176 22.6 40.8 0.00 0.00 0.00 80 1006.9
20260507111532 61 132 20.0 37.4 0.00 0.00 0.00 81 1007.5
20260507110031 60 184 17.4 29.5 0.00 0.00 0.00 81 1007.4
20260507104524 60 194 19.1 27.8 0.00 0.00 0.00 80 1007.8
20260507103023 60 165 18.2 30.4 0.00 0.00 0.00 80 1007.9
20260507101525 60 169 20.9 33.9 0.00 0.00 0.00 81 1008.1
20260507100031 60 207 19.1 27.8 0.00 0.00 0.00 82 1008.4
20260507094515 60 205 10.4 22.6 0.00 0.00 0.00 81 1008.5
20260507093014 59 192 13.9 26.9 0.00 0.00 0.00 81 1008.9
20260507091511 59 188 14.8 25.2 0.00 0.00 0.00 84 1009.3
20260507090008 59 194 15.6 20.9 0.00 0.00 0.00 83 1009.6
20260507084511 60 224 9.6 24.3 0.00 0.00 0.00 82 1009.7
20260507083012 60 186 11.3 20.9 0.00 0.00 0.00 82 1010.1
20260507081503 59 153 5.2 18.2 0.00 0.00 0.00 82 1009.3
20260507080107 60 208 7.8 20.9 0.00 0.00 0.00 82 1010.0
20260507074558 60 180 12.2 19.1 0.00 0.00 0.00 81 1010.3
20260507073058 60 163 12.2 19.1 0.00 0.00 0.00 81 1010.5
20260507071553 60 184 10.4 24.3 0.00 0.00 0.00 80 1011.2
20260507070103 60 178 10.4 23.5 0.00 0.00 0.00 79 1011.3
20260507064549 59 185 12.2 19.1 0.00 0.00 0.00 79 1011.3
20260507063052 60 179 9.6 20.0 0.00 0.00 0.00 78 1011.3
20260507061544 60 155 9.6 17.4 0.00 0.00 0.00 77 1011.4
20260507060044 61 157 17.4 26.1 0.00 0.00 0.00 75 1011.5
20260507054541 61 152 14.8 24.3 0.00 0.00 0.00 72 1011.6
20260507053035 60 194 13.9 21.7 0.00 0.00 0.00 67 1012.2
20260507051532 59 208 6.1 17.4 0.00 0.00 0.00 70 1012.8
20260507050049 59 193 10.4 20.0 0.00 0.00 0.00 72 1013.1
20260507044528 59 170 11.3 20.9 0.00 0.00 0.00 72 1013.2
20260507043024 59 158 13.0 21.7 0.00 0.00 0.00 73 1013.6
20260507041521 60 195 10.4 19.1 0.00 0.00 0.00 72 1014.0
20260507040021 60 161 9.6 17.4 0.00 0.00 0.00 72 1014.3
20260507034516 60 197 13.0 22.6 0.00 0.00 0.00 75 1014.4